FRIUL PALLET

PALLET USATI

PALLET USATI

Tante aziende su tutto il territorio nazionale ritirano e vendono pallet usati, però poche sono le realtà come Friul Pallet che ritirano e vendono qualsiasi tipo di pallet e non solo quelli standard EPAL e CP o di misure comuni europallet 80×120 e 100×120. Infatti grazie ad un ormai testato metodo di codifica siamo in grado di dividere i pallet in base alle varie esigenze dei nostri clienti: dimensione del pallet, robustezza, lati di inforcabilità, possibilità di usare il transpallet, perimetratura o reversibilità del bancale. Questo nel tempo ci ha permesso di offrire un’alternativa ecologica ed economica ai nostri clienti che hanno acquistato o venduto migliaia di pallet recuperati che hanno generato un risparmio economico per alcuni ed hanno evitato costi di smaltimento per altri.

Essendo la Friul Pallet affiliata alla rete RePalNet, ha la possibilità di inserire gratuitamente i propri pallet usati in esubero sul sito apposito www.repalnet.eu e riuscire a venderli con grande facilità facendo fare un turnover più veloce al proprio magazzino. Abbiamo instaurato rapporti con riparatori di pallet usati in tutta Italia e, grazie al servizio RePalNet, abbiamo potuto comprare o vendere pallet usati in rete per accontentare sempre i nostri clienti.

Inserito ilCodiceMisureQ.tàTipologiaRobustezzaTranspalletExtraFoto
18/10/2018P80X120EPALU-1^080X1205004 vieRobustoTranspallabileEpal 1^ Scelta
18/10/2018P80X120EPALU-2^080X1205004 vieRobustoTranspallabileEpal 2^ Scelta
01/12/2017U060X080_4VFST060X0802004 vieForteTranspallabile
01/12/2017U060X080_DUSS060X08015004 vieRobustoTranspallabileDusseldorf
01/12/2017U065X135_4VFST065X1353004 vieForteTranspallabile
01/12/2017U075X150_4VFST075X1503504 vieForteTranspallabile
01/12/2017U080X080_4VFST080X0803504 vieForteTranspallabile
01/12/2017U080X120_4VFST080X1205004 vieForteTranspallabile
01/12/2017U080X120_4VLST080X1205004 vieLeggeroTranspallabile
01/12/2017U080X120_4VRST080X1203004 vieRobustoTranspallabile
01/12/2017U100X120_4VFST100X1205004 vieForteTranspallabile
01/12/2017U100X120_4VFSTP100X1203004 vieForteTranspallabilePerimetrato
01/12/2017U100X120_4VLST100X1205004 vieLeggeroTranspallabile
01/12/2017U100X120_CP1100X1205004 vieRobustoTranspallabileCP1
01/12/2017U105X125_4VFST105X1251504 vieForteTranspallabile
01/12/2017U110X110_4VFST110X1102504 vieForteTranspallabile
01/12/2017U110X130_4VFST110X1302004 vieForteTranspallabile
01/12/2017U060X080_2VFST060X080502 vieForteTranspallabile
01/12/2017U065X090_4VFST065X090504 vieForteTranspallabile
01/12/2017U070X100_4VFST070X100504 vieForteTranspallabile
01/12/2017U070X120_4VFST070X120504 vieForteTranspallabile
01/12/2017U075X075_2VFNT075X075502 vieForteNON Transpallabile
01/12/2017U075X110_4VFST075X110504 vieForteTranspallabile
01/12/2017U080X080_2VFST080X080502 vieForteTranspallabile
01/12/2017U080X100_2VFNT080X100502 vieForteNON Transpallabile
01/12/2017U080X100_4VFST080X1002504 vieForteTranspallabile
01/12/2017U080X120_4VFSTC080X120504 vieForteTranspallabileContrari
01/12/2017U080X120_4VFSTP080X120504 vieForteTranspallabilePerimetrato
01/12/2017U080X120_4VLSTC080X1201504 vieLeggeroTranspallabileContrari
01/12/2017U080X120_4VLSTP080X1201004 vieLeggeroTranspallabilePerimetrato
01/12/2017U090X090_4VFST090X0901504 vieForteTranspallabile
01/12/2017U090X100_4VFST090X100504 vieForteTranspallabile
01/12/2017U090X110_4VFST090X1101004 vieForteTranspallabile
01/12/2017U090X110_4VRST090X1103004 vieRobustoTranspallabile
01/12/2017U090X120_4VFST090X1202004 vieForteTranspallabile
01/12/2017U090X120_4VLST090X120504 vieLeggeroTranspallabile
01/12/2017U095X095_4VFST095X0952004 vieForteTranspallabile
01/12/2017U095X120_4VLST095X1202004 vieLeggeroTranspallabile
01/12/2017U100X100_4VFST100X1005004 vieForteTranspallabile
01/12/2017U100X100_4VRST100X1001004 vieRobustoTranspallabile
01/12/2017U100X110_4VFST100X110504 vieForteTranspallabile
01/12/2017U100X115_4VLST100X115504 vieLeggeroTranspallabile
01/12/2017U100X120_2VFNT100X1201002 vieForteNON Transpallabile
01/12/2017U100X120_2VFST100X120502 vieForteTranspallabile
01/12/2017U100X120_2VLNT100X120502 vieLeggeroNON Transpallabile
01/12/2017U100X120_2VLST100X120502 vieLeggeroTranspallabile
01/12/2017U100X120_4VFSTC100X120504 vieForteTranspallabileContrari
01/12/2017U100X120_4VLSTC100X1205004 vieLeggeroTranspallabileContrari
01/12/2017U100X120_4VLSTP100X1202004 vieLeggeroTranspallabilePerimetrato
01/12/2017U100X120_CP6100X120504 vieRobustoTranspallabileCP6
01/12/2017U100X130_4VLST100X130504 vieLeggeroTranspallabile
01/12/2017U105X105_2VFST105X105502 vieForteTranspallabile
01/12/2017U105X105_4VFST105X105504 vieForteTranspallabile
01/12/2017U105X105_4VFSTP105X105504 vieForteTranspallabilePerimetrato
01/12/2017U105X105_4VFSTPANNEL105X105504 vieForteTranspallabileCon Pannello
01/12/2017U105X120_2VLNT105X120502 vieLeggeroNON Transpallabile
01/12/2017U105X120_4VFSTP105X120504 vieForteTranspallabilePerimetrato
01/12/2017U110X110_4VFSTP110X1101504 vieForteTranspallabilePerimetrato
01/12/2017U110X130_2VFNT110X130502 vieForteNON Transpallabile
01/12/2017U110X130_4VFSTP110X1302004 vieForteTranspallabilePerimetrato
01/12/2017U110X135_2VFNT110X135502 vieForteNON Transpallabile
01/12/2017U115X115_4VFST115X1155004 vieForteTranspallabile
01/12/2017U115X115_4VFSTP115X1152004 vieForteTranspallabilePerimetrato
01/12/2017U115X115_4VFSTPANNEL115X115504 vieForteTranspallabileCon Pannello
01/12/2017U115X115_4VLST115X115504 vieLeggeroTranspallabile
01/12/2017U115X125_4VFSTP115X125504 vieForteTranspallabilePerimetrato
01/12/2017U115X130_4VFST115X1302504 vieForteTranspallabile
01/12/2017U120X120_4VFSTP120X120504 vieForteTranspallabilePerimetrato
01/12/2017U130X220_2VRST130X220502 vieRobustoTranspallabile

RICHIEDI MAGGIORI INFORMAZIONI

ALTRE LAVORAZIONI E PRODOTTI

Progettiamo insieme a voi sia pallet a perdere che pallet a rendere al fine di trovare la miglior soluzione per le vostre esigenze

Disponiamo di pallet EPAL, CP, VMF e Dusseldorf, sia nuovi che usati. Con una buona rete di fornitori, possiamo offrirli a prezzi competitivi.

Ritiriamo e rivendiamo pallet usati, dopo un’attenta selezione ed una eventuale riparazione, offriamo un’alternativa ecologica al “nuovo”.

Produciamo anche imballaggi industriali in legno per proteggere le vostre merci. Casse, Gabbie, Morali Fresati e Sagomati… e altro ancora!

Siamo certificati FITOK per il trattamento HT ISPM 15 FAO (il timbro con la spiga), questo permette di spedire fuori dall’UE i vostri imballi.

Effettuiamo anche l’essicazione dei pallet per ridurre la formazione di funghi e muffe sulle tavole ed il trasferimento dell’umidità dal legno ai cartoni o alla merce caricata.

RITIRIAMO I TUOI PALLET USATI!

SCOPRI WWW.REPALNET.EU